Olbia, Italy

2:06 PM CET on February 09, 2016 (GMT +0100)
Olbia

Weather History for 16531 - December, 2013

Change the Weather History Date:

Tuesday, December 3, 2013

  Actual Average Record
Temperature  
Mean Temperature 50 °F -  
Max Temperature 59 °F 56 °F - ()
Min Temperature 41 °F 42 °F - ()
Degree Days  
Heating Degree Days 15    
Moisture  
Dew Point 46 °F    
Average Humidity 77    
Maximum Humidity 93    
Minimum Humidity 59    
Precipitation  
Precipitation 0.00 in 0.12 in - ()
Sea Level Pressure  
Sea Level Pressure 30.22 in    
Wind  
Wind Speed 11 mph ()    
Max Wind Speed 18 mph    
Max Gust Speed -    
Visibility 6.2 miles    
Events      
T = Trace of Precipitation, MM = Missing Value Source: Averaged Metar Reports

Daily Weather History Graph

Daily Weather History Graph

Search for Another Location

Airport or City:

Trip Planner

Search our weather history database for the weather conditions in past years. The results will help you decide how hot, cold, wet, or windy it might be!

Date:

Astronomy

Dec. 03, 2013 Rise Set
Actual Time 7:29 AM CET 4:54 PM CET
Civil Twilight 6:58 AM CET 5:24 PM CET
Nautical Twilight 6:24 AM CET 5:59 PM CET
Astronomical Twilight 5:51 AM CET 6:32 PM CET
Moon 7:40 AM CET (12/3) 5:40 PM CET (12/3)
Length of Visible Light 10h 26m
Length of Day
9h 25m
New Moon, 0% of the Moon is Illuminated
Dec 3
New Moon
Dec 9
First Quarter
Dec 17
Full
Dec 25
Last Quarter
Jan 1
New

Hourly Weather History & Observations

Time (CET) Temp. Windchill Dew Point Humidity Pressure Visibility Wind Dir Wind Speed Gust Speed Precip Events Conditions
12:20 AM 57.2 °F - 53.6 °F 88% 30.12 in 6.2 mi NE 17.3 mph - N/A   Scattered Clouds
12:50 AM 57.2 °F - 53.6 °F 88% 30.12 in 6.2 mi NE 16.1 mph - N/A   Scattered Clouds
1:20 AM 57.2 °F - 53.6 °F 88% 30.12 in 6.2 mi NE 18.4 mph - N/A   Scattered Clouds
1:50 AM 57.2 °F - 51.8 °F 82% 30.15 in 6.2 mi NE 15.0 mph - N/A   Scattered Clouds
2:20 AM 57.2 °F - 51.8 °F 82% 30.15 in 6.2 mi NNE 16.1 mph - N/A   Scattered Clouds
2:50 AM 57.2 °F - 50.0 °F 77% 30.15 in 6.2 mi NNE 13.8 mph - N/A   Scattered Clouds
3:20 AM 55.4 °F - 50.0 °F 82% 30.15 in 6.2 mi NNE 15.0 mph - N/A   Scattered Clouds
3:50 AM 55.4 °F - 48.2 °F 77% 30.15 in 6.2 mi NNE 15.0 mph - N/A   Scattered Clouds
5:50 AM 55.4 °F - 48.2 °F 77% 30.18 in 6.2 mi NNE 16.1 mph - N/A   Scattered Clouds
6:20 AM 55.4 °F - 48.2 °F 77% 30.18 in 6.2 mi North 16.1 mph - N/A   Scattered Clouds
6:50 AM 55.4 °F - 46.4 °F 72% 30.21 in 6.2 mi North 17.3 mph - N/A   Scattered Clouds
7:20 AM 55.4 °F - 48.2 °F 77% 30.21 in 6.2 mi North 13.8 mph - N/A   Scattered Clouds
7:50 AM 55.4 °F - 46.4 °F 72% 30.21 in 6.2 mi North 11.5 mph - N/A   Mostly Cloudy
8:20 AM 55.4 °F - 46.4 °F 72% 30.21 in 6.2 mi NNE 10.4 mph - N/A   Mostly Cloudy
8:50 AM 55.4 °F - 46.4 °F 72% 30.21 in 6.2 mi NNE 11.5 mph - N/A   Mostly Cloudy
9:20 AM 55.4 °F - 46.4 °F 72% 30.24 in 6.2 mi North 11.5 mph - N/A   Mostly Cloudy
9:50 AM 55.4 °F - 46.4 °F 72% 30.24 in 6.2 mi NNE 11.5 mph - N/A   Mostly Cloudy
10:20 AM 55.4 °F - 46.4 °F 72% 30.24 in 6.2 mi NNE 9.2 mph - N/A   Mostly Cloudy
10:50 AM 57.2 °F - 44.6 °F 63% 30.24 in 6.2 mi North 10.4 mph - N/A   Mostly Cloudy
11:20 AM 57.2 °F - 46.4 °F 67% 30.24 in 6.2 mi North 11.5 mph - N/A   Scattered Clouds
11:50 AM 57.2 °F - 46.4 °F 67% 30.24 in 6.2 mi North 11.5 mph - N/A   Scattered Clouds
12:20 PM 57.2 °F - 46.4 °F 67% 30.24 in 6.2 mi North 10.4 mph - N/A   Scattered Clouds
12:50 PM 57.2 °F - 46.4 °F 67% 30.24 in 6.2 mi North 10.4 mph - N/A   Scattered Clouds
1:20 PM 59.0 °F - 44.6 °F 59% 30.24 in 6.2 mi North 9.2 mph - N/A   Scattered Clouds
1:50 PM 57.2 °F - 44.6 °F 63% 30.24 in 6.2 mi NNE 8.1 mph - N/A   Partly Cloudy
2:20 PM 59.0 °F - 44.6 °F 59% 30.21 in 6.2 mi North 6.9 mph - N/A   Partly Cloudy
2:50 PM 57.2 °F - 42.8 °F 59% 30.21 in 6.2 mi North 6.9 mph - N/A   Partly Cloudy
3:20 PM 57.2 °F - 44.6 °F 63% 30.21 in 6.2 mi North 6.9 mph - N/A   Partly Cloudy
3:50 PM 57.2 °F - 42.8 °F 59% 30.24 in 6.2 mi North 5.8 mph - N/A   Partly Cloudy
4:20 PM 55.4 °F - 44.6 °F 67% 30.24 in 6.2 mi NNE 3.5 mph - N/A   Partly Cloudy
4:50 PM 53.6 °F - 44.6 °F 72% 30.24 in - Variable 1.2 mph - N/A   Clear
5:20 PM 51.8 °F - 44.6 °F 76% 30.24 in - Calm Calm - N/A   Clear
5:50 PM 48.2 °F - 42.8 °F 82% 30.24 in - Calm Calm - N/A   Clear
6:20 PM 46.4 °F - 41.0 °F 81% 30.24 in - Variable 2.3 mph - N/A   Clear
6:50 PM 46.4 °F 44.3 °F 42.8 °F 87% 30.24 in - South 4.6 mph - N/A   Clear
7:20 PM 46.4 °F 44.3 °F 42.8 °F 87% 30.27 in - South 4.6 mph - N/A   Clear
8:20 PM 44.6 °F 43.1 °F 42.8 °F 93% 30.27 in - WSW 3.5 mph - N/A   Clear
8:50 PM 44.6 °F 41.4 °F 42.8 °F 93% 30.27 in - SSW 5.8 mph - N/A   Clear
9:20 PM 44.6 °F 42.2 °F 41.0 °F 87% 30.27 in - South 4.6 mph - N/A   Clear
9:50 PM 42.8 °F 41.1 °F 39.2 °F 87% 30.27 in - SSW 3.5 mph - N/A   Clear
10:20 PM 42.8 °F 40.1 °F 41.0 °F 93% 30.27 in - SSW 4.6 mph - N/A   Clear
10:50 PM 42.8 °F 40.1 °F 41.0 °F 93% 30.27 in - SSW 4.6 mph - N/A   Clear
11:20 PM 41.0 °F 39.0 °F 39.2 °F 93% 30.27 in - SSW 3.5 mph - N/A   Clear
11:50 PM 41.0 °F 37.1 °F 39.2 °F 93% 30.27 in - SW 5.8 mph - N/A   Clear